1500652800.24,22619,23.75,74248.8,17.21,-13.29,-15.35,0,*4D
1500652801.46,22620,23.69,74248.5,17.23,-13.15,-15.63,0,*49
1500652802.72,22621,23.75,74250.8,17.23,-13.55,-16.23,0,*4B
1500652803.99,22622,23.75,74248.0,17.23,-13.29,-16.23,0,*43
1500652805.25,22623,23.75,74248.3,17.23,-13.11,-16.13,0,*4A
1500652806.53,22624,23.75,74250.3,17.23,-13.01,-15.85,0,*40
1500652807.79,22625,23.75,74248.0,17.23,-13.23,-15.85,0,*41
1500652809.07,22626,23.75,74248.0,17.27,-13.33,-15.85,0,*47
1500652810.33,22627,23.75,74250.3,17.23,-13.69,-16.13,0,*41
1500652811.58,22628,23.75,74250.5,17.23,-13.97,-16.45,0,*4C
1500652812.86,22629,23.75,74250.3,17.27,-13.97,-16.27,0,*4D
1500652814.1,22630,23.75,74250.5,17.27,-14.23,-16.59,0,*44
1500652815.33,22631,23.75,74248.8,17.21,-14.33,-16.51,0,*4A
1500652816.59,22632,23.69,74246.5,17.21,-14.01,-16.13,0,*4E
1500652817.88,22633,23.75,74248.3,17.23,-13.83,-15.89,0,*40
1500652819.14,22634,23.75,74250.8,17.23,-13.69,-15.57,0,*40
1500652820.39,22635,23.75,74250.5,17.27,-13.65,-15.57,0,*49
1500652821.59,22636,23.75,74248.5,17.29,-13.65,-15.63,0,*43
1500652822.82,22637,23.75,74250.8,17.29,-14.61,-16.51,0,*43
1500652824.08,22638,23.75,74250.5,17.27,-14.83,-16.83,0,*41
1500652825.28,22639,23.75,74246.5,17.29,-14.89,-16.79,0,*41
1500652826.56,22640,23.75,74250.0,17.27,-14.83,-16.31,0,*47
1500652827.82,22641,23.75,74250.8,17.29,-14.01,-15.21,0,*40
1500652829.06,22642,23.75,74248.3,17.27,-14.29,-15.25,0,*43
1500652830.28,22643,23.75,74248.3,17.29,-13.15,-13.87,0,*4A
1500652831.54,22644,23.75,74248.8,17.33,-12.57,-12.75,0,*4D
1500652832.8,22645,23.75,74252.0,17.31,-12.15,-12.21,0,*49
1500652834.03,22646,23.69,74248.5,17.33,-11.41,-11.63,0,*4F
1500652835.29,22647,23.75,74252.8,17.35,-11.59,-12.43,0,*40
1500652836.54,22648,23.75,74250.8,17.37,-11.37,-13.01,0,*42
1500652837.76,22649,23.75,74248.3,17.37,-11.55,-13.73,0,*42
1500652839.02,22650,23.75,74250.0,17.37,-12.07,-14.75,0,*4F
1500652840.27,22651,23.75,74248.3,17.37,-12.15,-14.93,0,*45
1500652841.51,22652,23.75,74248.5,17.39,-12.39,-15.25,0,*4A
1500652842.78,22653,23.75,74248.5,17.39,-12.65,-15.35,0,*43
1500652844.04,22654,23.75,74248.3,17.39,-13.51,-16.23,0,*46
1500652845.28,22655,23.75,74248.5,17.37,-14.19,-16.69,0,*4C
1500652846.51,22656,23.75,74250.8,17.35,-13.55,-15.95,0,*42
1500652847.75,22657,23.75,74248.3,17.35,-13.51,-15.67,0,*4A
1500652848.95,22658,23.75,74250.5,17.37,-13.47,-15.63,0,*44
1500652850.17,22659,23.75,74252.5,17.39,-13.15,-15.07,0,*4E
1500652851.41,22660,23.75,74248.5,17.39,-13.19,-15.11,0,*4F
1500652852.64,22661,23.75,74250.5,17.39,-12.89,-14.65,0,*44
1500652853.9,22662,23.75,74252.5,17.41,-12.75,-14.55,0,*48
1500652855.13,22663,23.75,74248.0,17.39,-12.93,-14.61,0,*49
1500652856.33,22664,23.75,74252.5,17.41,-13.11,-14.33,0,*4D
1500652857.57,22665,23.75,74248.8,17.41,-13.43,-14.47,0,*48
1500652858.79,22666,23.75,74252.3,17.41,-13.33,-14.19,0,*47
1500652859.99,22667,23.75,74250.3,17.41,-13.15,-14.19,0,*42
1500652861.27,22668,23.75,74248.5,17.43,-12.83,-14.05,0,*4C
1500652862.49,22669,23.75,74252.3,17.43,-13.47,-15.15,0,*44
1500652863.74,22670,23.75,74252.0,17.41,-14.15,-16.09,0,*40
1500652864.94,22671,23.75,74250.3,17.41,-13.47,-15.63,0,*4E
1500652866.22,22672,23.75,74254.0,17.39,-13.87,-16.27,0,*4D
1500652867.47,22673,23.75,74254.5,17.39,-13.79,-16.41,0,*4D
1500652868.73,22674,23.75,74254.8,17.39,-13.65,-16.27,0,*47
1500652869.96,22675,23.75,74252.0,17.37,-12.89,-15.81,0,*44
1500652871.22,22676,23.75,74248.8,17.39,-12.21,-15.01,0,*43
1500652872.47,22677,23.75,74254.5,17.39,-12.35,-15.11,0,*46
1500652873.73,22678,23.75,74252.0,17.39,-12.79,-15.53,0,*47
1500652875.01,22679,23.75,74254.3,17.39,-12.53,-15.21,0,*4B
1500652876.27,22680,23.75,74252.8,17.39,-12.25,-14.93,0,*44
1500652877.5,22681,23.75,74252.0,17.41,-12.15,-14.61,0,*44
1500652878.7,22682,23.75,74252.5,17.41,-12.03,-14.33,0,*47
1500652879.94,22683,23.75,74254.3,17.43,-12.21,-14.61,0,*43
1500652881.19,22684,23.75,74250.5,17.43,-12.11,-14.19,0,*48
1500652882.45,22685,23.75,74256.0,17.41,-11.33,-13.33,0,*47
1500652883.73,22686,23.75,74252.5,17.43,-11.33,-13.29,0,*4D
1500652884.94,22687,23.75,74252.5,17.45,-11.01,-12.93,0,*4B
1500652886.17,22688,23.75,74250.3,17.49,-10.57,-12.53,0,*46
1500652887.4,22689,23.75,74254.0,17.51,-10.23,-12.47,0,*48
1500652888.63,22690,23.75,74254.0,17.51,-9.83,-12.47,0,*72
1500652889.85,22691,23.75,74252.5,17.51,-8.29,-11.19,0,*7A
1500652891.09,22692,23.75,74254.3,17.51,-7.65,-9.97,0,*41
1500652892.34,22693,23.75,74254.0,17.55,-6.63,-7.87,0,*4C
1500652893.53,22694,23.75,74254.8,17.53,-6.01,-6.85,0,*4A
1500652894.77,22695,23.75,74256.0,17.55,-4.93,-5.51,0,*4E
1500652895.98,22696,23.75,74254.8,17.57,-4.93,-6.13,0,*4A
1500652897.21,22697,23.75,74256.3,17.59,-6.27,-7.53,0,*4D
1500652898.4,22698,23.75,74254.8,17.57,-6.77,-8.33,0,*40
1500652899.59,22699,23.75,74252.8,17.57,-6.73,-8.33,0,*45
1500652900.81,22700,23.75,74254.3,17.57,-6.51,-8.51,0,*40
1500652902.04,22701,23.75,74254.8,17.57,-5.23,-7.87,0,*43
1500652903.26,22702,23.75,74254.0,17.57,-5.07,-7.87,0,*46
1500652904.45,22703,23.75,74256.0,17.57,-5.43,-8.45,0,*46
1500652905.65,22704,23.75,74256.5,17.57,-5.55,-8.63,0,*42
1500652906.92,22705,23.75,74252.0,17.63,-5.93,-9.45,0,*4B
1500652908.2,22706,23.75,74258.3,17.63,-7.05,-11.07,0,*7A
1500652909.48,22707,23.75,74254.0,17.63,-7.43,-11.97,0,*70
1500652910.74,22708,23.75,74258.5,17.63,-7.73,-12.29,0,*7A
1500652911.97,22709,23.75,74258.5,17.61,-7.61,-12.29,0,*7A
1500652913.24,22710,23.75,74254.3,17.63,-7.05,-11.73,0,*7E
1500652914.47,22711,23.75,74254.8,17.65,-7.35,-12.25,0,*7A
1500652915.69,22712,23.75,74256.3,17.65,-7.49,-12.57,0,*77
1500652916.88,22713,23.75,74258.3,17.65,-8.17,-13.69,0,*7E
1500652918.13,22714,23.75,74256.0,17.65,-9.53,-15.39,0,*7B
1500652919.37,22715,23.75,74256.8,17.65,-10.15,-16.17,0,*4F
1500652920.6,22716,23.75,74258.3,17.65,-9.75,-15.85,0,*7A
1500652921.82,22717,23.75,74258.3,17.65,-9.67,-15.89,0,*74
1500652923.07,22718,23.75,74254.8,17.63,-10.01,-16.31,0,*45
1500652924.32,22719,23.75,74258.0,17.59,-10.79,-17.31,0,*43
1500652925.6,22720,23.75,74254.3,17.59,-10.67,-17.03,0,*47
1500652926.83,22721,23.75,74254.3,17.59,-10.45,-16.75,0,*46
1500652928.09,22722,23.75,74254.3,17.59,-10.71,-16.97,0,*4E
1500652929.32,22723,23.75,74254.8,17.59,-10.27,-16.37,0,*46
1500652930.57,22724,23.75,74252.5,17.59,-10.27,-16.27,0,*40
1500652931.82,22725,23.75,74252.3,17.59,-10.09,-15.85,0,*46
1500652933.07,22726,23.75,74252.5,17.59,-10.31,-16.09,0,*49
1500652934.33,22727,23.75,74252.5,17.59,-10.27,-15.85,0,*48
1500652935.59,22728,23.75,74252.0,17.59,-10.31,-15.85,0,*40
1500652936.81,22729,23.75,74254.3,17.63,-11.15,-16.89,0,*40
1500652938.07,22730,23.75,74252.3,17.61,-11.73,-17.21,0,*49
1500652939.33,22731,23.75,74252.5,17.61,-11.85,-17.11,0,*42
1500652940.56,22732,23.75,74254.8,17.61,-11.73,-16.79,0,*47
1500652941.82,22733,23.75,74258.3,17.59,-10.93,-16.13,0,*4E
1500652943.07,22734,23.75,74258.5,17.61,-12.15,-17.55,0,*4D
1500652944.3,22735,23.75,74252.8,17.61,-13.01,-18.25,0,*40
1500652945.56,22736,23.75,74254.8,17.57,-13.79,-18.93,0,*44
1500652946.79,22737,23.75,74254.8,17.57,-14.51,-19.37,0,*47
1500652948.02,22738,23.75,74248.8,17.53,-13.69,-18.35,0,*43
1500652949.28,22739,23.75,74254.3,17.51,-14.19,-18.89,0,*47
1500652950.56,22740,23.75,74252.0,17.51,-14.47,-18.93,0,*49
1500652951.81,22741,23.75,74254.8,17.49,-13.79,-18.01,0,*40
1500652953.04,22742,23.75,74254.3,17.45,-14.43,-18.65,0,*43
1500652954.31,22743,23.75,74252.0,17.43,-14.47,-18.45,0,*42
1500652955.54,22744,23.75,74252.0,17.45,-14.51,-18.41,0,*40
1500652956.75,22745,23.75,74248.8,17.41,-15.01,-18.79,0,*4A
1500652958.01,22746,23.75,74254.8,17.43,-14.33,-17.97,0,*44
1500652959.25,22747,23.75,74252.8,17.41,-14.05,-17.69,0,*43
1500652960.47,22748,23.75,74252.3,17.39,-15.07,-18.83,0,*4B
1500652961.69,22749,23.75,74250.5,17.39,-15.95,-19.71,0,*4D
1500652962.92,22750,23.75,74254.5,17.37,-15.89,-19.51,0,*44
1500652964.18,22751,23.75,74252.0,17.35,-15.57,-19.13,0,*42
1500652965.38,22752,23.75,74252.5,17.37,-15.95,-19.51,0,*4B
1500652966.58,22753,23.75,74252.0,17.33,-15.75,-19.17,0,*42
1500652967.82,22754,23.75,74254.3,17.33,-14.55,-18.11,0,*41
1500652969.04,22755,23.75,74258.3,17.31,-13.15,-17.31,0,*4C
1500652970.32,22756,23.75,74254.5,17.31,-12.07,-16.27,0,*4B
1500652971.56,22757,23.75,74252.3,17.31,-12.89,-16.79,0,*47
1500652972.81,22758,23.75,74252.8,17.31,-13.65,-17.45,0,*45
1500652974.08,22759,23.75,74252.8,17.31,-14.37,-17.97,0,*4B
1500652975.28,22760,23.75,74254.3,17.29,-14.19,-17.73,0,*4E
1500652976.52,22761,23.75,74250.5,17.31,-14.37,-17.73,0,*4A
1500652977.78,22762,23.75,74248.3,17.31,-14.33,-17.59,0,*45
1500652979.01,22763,23.75,74254.5,17.29,-13.73,-16.69,0,*4C
1500652980.23,22764,23.75,74254.3,17.33,-13.61,-16.45,0,*4D
1500652981.52,22765,23.75,74252.5,17.31,-14.01,-16.69,0,*41
1500652982.75,22766,23.75,74254.0,17.33,-13.51,-16.13,0,*4F
1500652983.98,22767,23.75,74254.8,17.33,-13.55,-16.09,0,*41
1500652985.24,22768,23.75,74250.0,17.33,-13.87,-16.17,0,*4E
1500652986.5,22769,23.75,74252.0,17.35,-14.43,-16.83,0,*4B
1500652987.73,22770,23.75,74252.8,17.35,-14.29,-16.59,0,*48
1500652989.01,22771,23.75,74250.0,17.35,-14.79,-17.21,0,*42
1500652990.27,22772,23.75,74254.8,17.35,-14.97,-17.35,0,*44
1500652991.56,22773,23.75,74248.0,17.35,-14.83,-17.07,0,*41
1500652992.84,22774,23.75,74254.3,17.35,-15.39,-17.63,0,*44
1500652994.06,22775,23.75,74250.3,17.35,-14.65,-16.89,0,*48
1500652995.33,22776,23.75,74254.3,17.35,-14.15,-16.17,0,*4B
1500652996.56,22777,23.75,74254.0,17.35,-14.29,-16.41,0,*46
1500652997.81,22778,23.75,74250.5,17.37,-14.75,-16.69,0,*48
1500652999.02,22779,23.75,74250.8,17.37,-14.65,-16.83,0,*4C
1500653000.28,22780,23.75,74252.0,17.35,-15.07,-17.07,0,*40
1500653001.53,22781,23.75,74252.3,17.35,-14.37,-16.31,0,*47
1500653002.79,22782,23.75,74248.3,17.35,-13.79,-15.95,0,*44
1500653004.02,22783,23.75,74252.0,17.37,-13.47,-16.13,0,*47
1500653005.28,22784,23.75,74252.0,17.35,-12.53,-15.53,0,*41
1500653006.53,22785,23.75,74248.8,17.37,-11.37,-15.21,0,*46
1500653007.78,22786,23.75,74252.5,17.39,-9.41,-14.33,0,*71
1500653009.0,22787,23.75,74252.5,17.37,-7.87,-11.81,0,*76
1500653010.23,22788,23.75,74254.0,17.39,-7.83,-10.97,0,*75
1500653011.48,22789,23.81,74256.5,17.39,-9.53,-12.39,0,*71
1500653012.7,22790,23.75,74248.5,17.39,-11.11,-13.65,0,*4E
1500653013.96,22791,23.75,74252.8,17.39,-11.93,-14.33,0,*41
1500653015.2,22792,23.75,74250.8,17.39,-11.11,-13.79,0,*41
1500653016.46,22793,23.75,74248.5,17.39,-10.67,-14.11,0,*49
1500653017.71,22794,23.75,74252.0,17.39,-11.07,-12.89,0,*4E
1500653018.97,22795,23.75,74252.5,17.39,-10.97,-14.05,0,*45
1500653020.23,22796,23.75,74250.0,17.39,-11.93,-14.89,0,*47
1500653021.49,22797,23.75,74252.8,17.37,-12.61,-14.93,0,*4D
1500653022.72,22798,23.75,74252.0,17.37,-12.39,-14.47,0,*46
1500653023.92,22799,23.81,74252.8,17.37,-12.25,-14.33,0,*49
1500653025.17,22800,23.75,74250.3,17.37,-12.15,-13.87,0,*4D
1500653026.4,22801,23.75,74250.0,17.41,-12.71,-14.29,0,*4C
1500653027.68,22802,23.81,74252.0,17.39,-12.61,-14.01,0,*4B
1500653028.91,22803,23.75,74250.8,17.41,-12.11,-13.73,0,*40
1500653030.19,22804,23.81,74254.0,17.39,-12.53,-14.05,0,*48
1500653031.44,22805,23.75,74248.5,17.43,-12.57,-13.69,0,*4D
1500653032.68,22806,23.75,74250.8,17.43,-12.47,-13.01,0,*41
1500653033.89,22807,23.75,74248.8,17.41,-12.43,-12.43,0,*41
1500653035.14,22808,23.75,74250.3,17.41,-12.35,-11.59,0,*47
1500653036.4,22809,23.75,74250.8,17.41,-12.61,-10.75,0,*48
1500653037.63,22810,23.75,74248.3,17.41,-12.29,-9.49,0,*7B
1500653038.82,22811,23.75,74250.8,17.41,-9.93,-6.59,0,*4F
1500653040.04,22812,23.75,74250.0,17.41,-8.45,-4.77,0,*48
1500653041.26,22813,23.81,74252.8,17.41,-6.19,-3.75,0,*4B
1500653042.48,22814,23.75,74252.5,17.45,-4.57,-4.73,0,*41
1500653043.73,22815,23.81,74256.8,17.43,-5.03,-6.81,0,*49
1500653044.98,22816,23.75,74252.0,17.43,-5.03,-7.15,0,*46
1500653046.21,22817,23.81,74252.0,17.45,-5.51,-7.73,0,*46
1500653047.47,22818,23.75,74252.8,17.43,-5.27,-7.35,0,*4C
1500653048.7,22819,23.75,74250.3,17.43,-4.85,-7.53,0,*44
1500653049.92,22820,23.75,74252.5,17.45,-4.93,-7.19,0,*41
1500653051.15,22821,23.75,74254.8,17.45,-4.81,-5.77,0,*49
1500653052.42,22822,23.75,74252.8,17.43,-4.85,-5.61,0,*4F
1500653053.67,22823,23.75,74250.5,17.45,-5.23,-6.63,0,*44
1500653054.89,22824,23.75,74252.3,17.45,-6.09,-8.51,0,*47
1500653056.16,22825,23.75,74252.0,17.43,-7.77,-9.83,0,*46
1500653057.36,22826,23.81,74254.3,17.45,-9.05,-11.15,0,*7E
1500653058.58,22827,23.75,74252.5,17.45,-9.67,-11.73,0,*7B
1500653059.82,22828,23.75,74250.5,17.45,-10.15,-12.53,0,*48
1500653061.05,22829,23.75,74248.5,17.45,-10.27,-12.11,0,*4E
1500653062.3,22830,23.75,74252.0,17.43,-9.11,-9.97,0,*49
1500653063.58,22831,23.75,74252.8,17.43,-7.61,-8.07,0,*49
1500653064.82,22832,23.75,74252.5,17.43,-7.15,-7.77,0,*41
1500653066.04,22833,23.75,74252.5,17.45,-7.57,-7.49,0,*4D
1500653067.26,22834,23.75,74252.5,17.45,-7.49,-6.97,0,*47
1500653068.46,22835,23.81,74252.0,17.49,-7.15,-6.59,0,*41
1500653069.67,22836,23.75,74252.8,17.49,-5.61,-5.47,0,*4F
1500653070.93,22837,23.81,74254.3,17.51,-4.85,-5.15,0,*4B
1500653072.13,22838,23.81,74252.0,17.49,-4.25,-5.47,0,*40
1500653073.35,22839,23.75,74254.5,17.51,-4.33,-6.89,0,*4E
1500653074.56,22840,23.81,74254.3,17.51,-4.09,-6.89,0,*49
1500653075.82,22841,23.75,74252.8,17.55,-3.79,-6.19,0,*45
1500653077.05,22842,23.81,74252.0,17.53,-3.83,-5.89,0,*4F
1500653078.3,22843,23.75,74252.3,17.57,-3.67,-5.81,0,*48
1500653079.56,22844,23.81,74256.3,17.59,-3.55,-6.23,0,*4B
1500653080.81,22845,23.81,74252.8,17.59,-3.27,-6.63,0,*4B
1500653082.0,22846,23.81,74252.8,17.61,-3.23,-6.89,0,*43
1500653083.23,22847,23.75,74254.0,17.63,-3.03,-6.81,0,*4A
1500653084.48,22848,23.75,74254.8,17.63,-3.31,-7.35,0,*4A
1500653085.71,22849,23.75,74254.8,17.63,-5.11,-9.23,0,*46
1500653086.99,22850,23.81,74256.8,17.63,-7.43,-11.33,0,*73
1500653088.21,22851,23.75,74252.8,17.61,-8.75,-11.77,0,*7A
1500653089.45,22852,23.75,74254.3,17.61,-8.07,-10.27,0,*78
1500653090.69,22853,23.75,74252.0,17.63,-7.05,-10.85,0,*7E
1500653091.9,22854,23.81,74254.5,17.65,-8.85,-13.51,0,*72
1500653093.13,22855,23.75,74254.5,17.65,-10.71,-15.63,0,*46
1500653094.39,22856,23.75,74254.5,17.61,-12.07,-17.11,0,*45
1500653095.65,22857,23.81,74254.3,17.63,-12.11,-16.93,0,*4A
1500653096.88,22858,23.75,74250.3,17.61,-12.57,-17.35,0,*48
1500653098.14,22859,23.75,74250.0,17.59,-13.19,-17.63,0,*4A
1500653099.37,22860,23.81,74252.8,17.57,-13.83,-18.21,0,*44
1500653100.63,22861,23.81,74252.0,17.57,-13.61,-17.45,0,*44
1500653101.89,22862,23.81,74252.0,17.55,-13.11,-16.31,0,*40
1500653103.13,22863,23.81,74254.3,17.57,-11.51,-13.83,0,*49
1500653104.42,22864,23.81,74254.3,17.55,-11.33,-14.83,0,*4F
1500653105.65,22865,23.81,74252.0,17.55,-12.03,-15.71,0,*42
1500653106.88,22866,23.75,74254.3,17.53,-12.71,-14.33,0,*45
1500653108.14,22867,23.75,74250.8,17.55,-11.33,-13.55,0,*40
1500653109.37,22868,23.81,74254.0,17.53,-13.29,-15.71,0,*40
1500653110.58,22869,23.81,74252.5,17.53,-13.43,-14.61,0,*4D
1500653111.83,22870,23.81,74252.0,17.53,-11.59,-11.73,0,*4A
1500653113.07,22871,23.75,74254.8,17.53,-10.31,-11.07,0,*47
1500653114.32,22872,23.81,74252.8,17.51,-10.75,-12.03,0,*41
1500653115.6,22873,23.75,74252.8,17.51,-12.75,-14.79,0,*49
1500653116.88,22874,23.81,74254.5,17.51,-14.01,-16.23,0,*46
1500653118.14,22875,23.81,74258.0,17.51,-14.15,-16.17,0,*45
1500653119.38,22876,23.81,74256.0,17.45,-14.51,-16.45,0,*44
1500653120.61,22877,23.81,74254.3,17.49,-15.53,-17.45,0,*4B
1500653121.84,22878,23.81,74252.3,17.45,-14.55,-15.99,0,*4C
1500653123.06,22879,23.81,74256.3,17.45,-14.11,-15.53,0,*4B
1500653124.26,22880,23.81,74252.5,17.49,-13.73,-15.07,0,*43
1500653125.5,22881,23.81,74254.3,17.49,-14.51,-15.95,0,*4E
1500653126.74,22882,23.81,74250.0,17.49,-13.97,-15.75,0,*4E
1500653128.01,22883,23.81,74252.0,17.45,-13.97,-16.27,0,*47
1500653129.21,22884,23.81,74248.8,17.45,-15.53,-17.49,0,*47
1500653130.44,22885,23.81,74250.8,17.45,-15.43,-17.49,0,*47
1500653131.64,22886,23.81,74252.8,17.49,-14.61,-16.41,0,*40
1500653132.84,22887,23.81,74254.3,17.45,-14.69,-16.45,0,*41
1500653134.1,22888,23.81,74252.3,17.45,-14.55,-15.81,0,*4A
1500653135.35,22889,23.81,74254.8,17.45,-14.93,-16.13,0,*49
1500653136.55,22890,23.81,74252.3,17.45,-15.11,-16.55,0,*48
1500653137.81,22891,23.81,74252.3,17.43,-15.71,-17.21,0,*4B
1500653139.01,22892,23.81,74252.5,17.45,-15.29,-16.79,0,*4F
1500653140.26,22893,23.81,74252.5,17.43,-15.07,-16.51,0,*4E
1500653141.51,22894,23.81,74258.0,17.43,-15.21,-16.75,0,*4B
1500653142.71,22895,23.81,74254.0,17.45,-14.89,-16.37,0,*49
1500653143.92,22896,23.81,74252.0,17.45,-14.65,-15.99,0,*4F
1500653145.14,22897,23.81,74252.5,17.45,-15.43,-16.93,0,*42
1500653146.35,22898,23.81,74252.5,17.45,-15.15,-16.55,0,*44
1500653147.63,22899,23.81,74248.3,17.43,-16.09,-17.55,0,*4C
1500653148.89,22900,23.81,74252.5,17.43,-15.43,-16.83,0,*4A
1500653150.15,22901,23.81,74252.0,17.43,-13.97,-14.89,0,*4C
1500653151.41,22902,23.81,74252.0,17.45,-12.53,-14.43,0,*46
1500653152.63,22903,23.81,74252.5,17.43,-11.19,-13.15,0,*48
1500653153.88,22904,23.81,74252.3,17.45,-11.29,-12.65,0,*4C
1500653155.15,22905,23.81,74254.0,17.45,-11.29,-12.79,0,*40
1500653156.4,22906,23.81,74250.3,17.49,-11.67,-13.61,0,*4D
1500653157.6,22907,23.81,74248.3,17.45,-9.93,-11.11,0,*77
1500653158.84,22908,23.81,74250.3,17.45,-7.73,-7.69,0,*40
1500653160.06,22909,23.81,74250.3,17.49,-4.93,-4.29,0,*47
1500653161.31,22910,23.81,74250.8,17.51,-1.95,-0.97,0,*74
1500653162.5,22911,23.81,74248.5,17.49,0.01,0.87,0,*71
1500653163.7,22912,23.81,74248.0,17.51,1.01,-0.07,0,*6F
1500653164.97,22913,23.81,74248.5,17.51,-2.55,-5.15,0,*47
1500653166.19,22914,23.81,74248.5,17.49,-5.19,-7.83,0,*4B
1500653167.46,22915,23.81,74248.8,17.51,-5.65,-7.27,0,*46
1500653168.68,22916,23.81,74248.8,17.49,-6.23,-6.77,0,*49
1500653169.9,22917,23.81,74248.8,17.49,-5.81,-3.91,0,*4E
1500653171.11,22918,23.81,74252.8,17.51,-3.31,-1.25,0,*48
1500653172.33,22919,23.81,74250.5,17.49,-2.71,-0.77,0,*73
1500653173.53,22920,23.81,74254.8,17.49,-1.51,0.87,0,*5A
1500653174.76,22921,23.81,74252.3,17.51,-1.25,0.37,0,*5A
1500653175.99,22922,23.81,74254.0,17.49,-1.99,-1.51,0,*4B
1500653177.23,22923,23.81,74252.0,17.51,-7.01,-6.85,0,*4A
1500653178.42,22924,23.81,74252.0,17.49,-7.83,-6.39,0,*49
1500653179.66,22925,23.81,74252.3,17.49,-7.99,-5.93,0,*40
1500653180.87,22926,23.81,74254.5,17.45,-4.45,-4.73,0,*42
1500653182.08,22927,23.81,74252.5,17.45,-8.37,-10.19,0,*73
1500653183.33,22928,23.75,74248.0,17.45,-9.11,-8.81,0,*41
1500653184.56,22929,23.81,74254.8,17.45,-9.37,-8.37,0,*49
1500653185.78,22930,23.81,74252.5,17.43,-6.55,-8.89,0,*49
1500653187.03,22931,23.81,74254.8,17.39,-9.05,-12.07,0,*72
1500653188.27,22932,23.81,74252.8,17.39,-10.53,-13.37,0,*48
1500653189.54,22933,23.81,74252.5,17.35,-11.81,-14.43,0,*4F
1500653190.81,22934,23.81,74252.0,17.35,-10.97,-12.57,0,*4D
1500653192.06,22935,23.81,74252.3,17.33,-11.63,-12.57,0,*40
1500653193.3,22936,23.81,74252.3,17.29,-7.27,-7.91,0,*41
1500653194.49,22937,23.81,74258.8,17.29,-3.35,-5.97,0,*43
1500653195.69,22938,23.81,74258.3,17.29,-2.95,-6.39,0,*40
1500653196.91,22939,23.81,74256.3,17.29,-0.77,-2.63,0,*74
1500653198.14,22940,23.81,74252.0,17.31,1.21,0.01,0,*47
1500653199.36,22941,23.81,74258.0,17.33,2.55,0.33,0,*75
1500653200.6,22942,23.81,74254.3,17.37,1.93,-2.75,0,*66
1500653201.85,22943,23.81,74254.3,17.37,-1.01,-4.01,0,*44
1500653203.04,22944,23.81,74256.5,17.37,-1.29,-6.05,0,*4F
1500653204.28,22945,23.81,74254.3,17.37,-4.93,-12.07,0,*7D
1500653205.51,22946,23.81,74254.3,17.35,-6.55,-13.51,0,*76
1500653206.76,22947,23.81,74258.5,17.35,-6.23,-13.23,0,*73
1500653207.98,22948,23.81,74250.5,17.35,-6.43,-13.43,0,*7C
1500653209.22,22949,23.81,74252.8,17.35,-7.11,-13.79,0,*72
1500653210.45,22950,23.81,74252.0,17.37,-6.85,-12.53,0,*7D
1500653211.68,22951,23.81,74252.0,17.37,-8.37,-15.39,0,*70
1500653212.94,22952,23.81,74252.8,17.35,-8.93,-15.85,0,*78
1500653214.15,22953,23.81,74256.3,17.37,-9.19,-15.53,0,*73
1500653215.39,22954,23.81,74252.5,17.35,-8.85,-13.19,0,*7A
1500653216.63,22955,23.81,74254.5,17.31,-8.33,-11.67,0,*79
1500653217.87,22956,23.81,74254.0,17.33,-7.05,-11.33,0,*73
1500653219.07,22957,23.81,74254.0,17.33,-8.29,-13.55,0,*71
1500653220.31,22958,23.81,74252.0,17.33,-9.41,-14.75,0,*74
1500653221.51,22959,23.81,74254.5,17.33,-9.27,-14.15,0,*73
1500653222.74,22960,23.81,74254.5,17.33,-9.37,-13.23,0,*7A
1500653223.96,22961,23.81,74254.8,17.33,-9.79,-12.71,0,*77
1500653225.16,22962,23.81,74254.8,17.33,-9.97,-12.03,0,*71
1500653226.38,22963,23.81,74254.5,17.33,-9.97,-11.63,0,*75
1500653227.58,22964,23.81,74254.5,17.33,-10.19,-11.41,0,*4C
1500653228.81,22965,23.81,74252.8,17.35,-10.01,-11.45,0,*46
1500653230.06,22966,23.81,74256.0,17.35,-10.01,-11.85,0,*49
1500653231.27,22967,23.81,74256.0,17.37,-9.01,-11.19,0,*77
1500653232.49,22968,23.81,74254.8,17.35,-8.41,-11.41,0,*72
1500653233.72,22969,23.81,74252.8,17.37,-8.59,-11.89,0,*7C
1500653234.97,22970,23.81,74254.0,17.35,-8.67,-11.85,0,*77
1500653236.21,22971,23.81,74254.8,17.37,-9.01,-11.63,0,*7D
1500653237.43,22972,23.81,74258.5,17.37,-9.31,-11.07,0,*7F
1500653238.65,22973,23.81,74258.8,17.39,-8.33,-9.01,0,*4C
1500653239.87,22974,23.81,74254.5,17.41,-7.91,-10.05,0,*7F
1500653241.09,22975,23.81,74252.3,17.41,-9.67,-11.97,0,*73
1500653242.31,22976,23.81,74254.8,17.41,-10.09,-12.61,0,*4A
1500653243.54,22977,23.81,74254.8,17.43,-10.53,-12.97,0,*4F
1500653244.77,22978,23.81,74252.5,17.41,-10.45,-11.85,0,*45
1500653246.03,22979,23.81,74256.8,17.41,-10.67,-11.29,0,*42
1500653247.26,22980,23.81,74256.8,17.41,-10.49,-10.79,0,*4C
1500653248.5,22981,23.81,74258.8,17.43,-9.83,-10.89,0,*7E
1500653249.78,22982,23.81,74254.0,17.43,-10.63,-12.11,0,*48
1500653251.06,22983,23.81,74258.5,17.43,-11.07,-13.01,0,*4A
1500653252.29,22984,23.81,74252.3,17.41,-11.45,-13.87,0,*47
1500653253.54,22985,23.81,74256.3,17.41,-11.51,-14.05,0,*4E
1500653254.78,22986,23.81,74254.5,17.39,-11.19,-13.79,0,*42
1500653256.01,22987,23.81,74258.3,17.41,-11.51,-14.19,0,*41
1500653257.24,22988,23.81,74254.8,17.41,-11.15,-14.05,0,*43
1500653258.47,22989,23.81,74258.0,17.41,-10.63,-14.19,0,*4F
1500653259.71,22990,23.81,74254.5,17.41,-11.01,-14.97,0,*44
1500653260.99,22991,23.81,74254.3,17.39,-10.71,-14.79,0,*4C
1500653262.25,22992,23.81,74258.5,17.39,-10.57,-14.51,0,*41
1500653263.45,22993,23.81,74258.5,17.41,-10.45,-14.19,0,*40
1500653264.68,22994,23.81,74256.0,17.43,-10.93,-14.89,0,*47
1500653265.93,22995,23.81,74256.3,17.43,-10.89,-14.75,0,*4E
1500653267.21,22996,23.81,74252.8,17.43,-11.85,-15.35,0,*45
1500653268.46,22997,23.81,74256.0,17.43,-11.51,-14.89,0,*4B
1500653269.72,22998,23.81,74258.3,17.45,-11.97,-15.01,0,*49
1500653270.95,22999,23.81,74256.5,17.43,-12.03,-15.07,0,*46
1500653272.23,23000,23.81,74252.8,17.43,-12.11,-14.97,0,*45
1500653273.43,23001,23.81,74256.5,17.49,-12.03,-14.65,0,*40
1500653274.66,23002,23.81,74254.8,17.45,-12.53,-14.69,0,*46
1500653275.94,23003,23.81,74258.3,17.43,-12.61,-14.55,0,*4F
1500653277.15,23004,23.81,74256.5,17.45,-12.43,-14.65,0,*4D
1500653278.41,23005,23.81,74252.8,17.49,-12.75,-15.21,0,*44
1500653279.64,23006,23.81,74256.3,17.45,-12.71,-15.29,0,*47
1500653280.91,23007,23.81,74256.5,17.45,-12.53,-14.97,0,*42
1500653282.11,23008,23.81,74252.5,17.45,-12.39,-14.65,0,*4C
1500653283.39,23009,23.81,74254.0,17.43,-12.35,-14.43,0,*43
1500653284.6,23010,23.81,74256.3,17.49,-12.25,-14.65,0,*44
1500653285.81,23011,23.81,74254.5,17.49,-12.39,-14.89,0,*4A
1500653287.05,23012,23.81,74254.0,17.49,-12.75,-15.25,0,*46
1500653288.3,23013,23.81,74254.5,17.51,-12.97,-15.35,0,*43
1500653289.57,23014,23.81,74252.8,17.51,-12.83,-15.01,0,*46
1500653290.8,23015,23.81,74252.8,17.49,-12.89,-14.93,0,*4E
1500653292.06,23016,23.81,74252.5,17.51,-13.19,-15.57,0,*45
1500653293.33,23017,23.81,74248.5,17.51,-14.01,-16.51,0,*4F
1500653294.56,23018,23.81,74250.0,17.49,-13.69,-16.31,0,*46
1500653295.82,23019,23.81,74252.5,17.51,-12.71,-15.29,0,*4C
1500653297.03,23020,23.81,74252.3,17.49,-13.47,-15.95,0,*4C
1500653298.26,23021,23.81,74248.0,17.49,-13.01,-15.07,0,*44
1500653299.47,23022,23.81,74248.3,17.49,-12.21,-14.23,0,*43